Total_Precipitation_Accumulation
2.52 2.74 3.59 3.51 2.96 2.59 2.40 2.28 2.18 2.27 2.03 1.94 2.08 2.14 2.33 2.40 2.48 2.43 2.36 2.61 2.92 3.32 3.75 3.90 3.67 3.44 3.25 3.03 2.75 2.43 2.33 2.54 2.80 3.00 3.15 3.30 3.50 3.46 3.44 3.24 3.04 2.29 2.30
2.24 2.51 3.32 3.37 2.78 2.46 2.31 2.21 2.27 2.18 2.06 2.02 2.18 2.25 2.47 2.52 2.43 2.39 2.52 2.84 3.12 3.48 3.62 3.38 3.08 2.85 2.78 2.63 2.33 2.09 2.19 2.61 2.93 3.16 3.32 3.25 3.55 3.60 3.44 3.13 3.02 2.22 2.10
1.87 2.02 2.51 2.98 2.71 2.39 2.18 2.18 2.20 2.02 2.00 2.11 2.26 2.28 2.39 2.46 2.47 2.51 2.73 3.02 3.29 3.57 3.24 2.84 2.51 2.40 2.34 2.21 2.05 2.05 2.31 2.72 3.04 3.33 3.60 2.88 2.88 3.43 3.41 3.08 2.66 2.08 1.89
1.52 1.67 2.01 2.44 2.44 2.19 1.98 1.95 1.89 1.89 1.93 2.06 2.28 2.20 2.24 2.44 2.55 2.60 2.92 3.06 3.15 3.00 2.54 2.43 2.24 2.12 1.98 1.95 1.90 2.01 2.29 2.64 3.09 3.45 3.38 2.46 2.23 2.79 2.94 2.70 2.49 2.07 1.78
1.35 1.53 2.02 2.24 2.13 2.00 1.84 1.76 1.68 1.74 1.88 2.07 2.18 2.13 2.23 2.34 2.48 2.62 2.87 2.86 2.69 2.41 2.20 2.20 2.03 1.95 1.73 1.65 1.72 1.95 2.16 2.54 3.10 3.04 2.40 2.34 2.31 2.52 2.43 2.29 2.35 2.07 1.75
1.24 1.56 1.98 2.01 1.71 1.60 1.60 1.56 1.56 1.67 1.90 2.03 1.99 2.14 2.27 2.37 2.39 2.46 2.52 2.51 2.39 2.12 2.05 1.95 1.80 1.75 1.63 1.57 1.73 1.96 2.24 2.80 2.92 2.05 1.91 2.08 2.01 2.27 2.23 2.27 2.23 2.01 1.82
1.29 1.62 1.75 1.85 1.58 1.39 1.43 1.44 1.51 1.75 2.04 2.02 1.95 2.01 2.07 2.14 2.16 2.13 2.14 2.17 2.18 2.00 1.89 1.81 1.74 1.63 1.71 1.66 1.78 1.98 2.34 2.82 2.39 1.76 1.84 2.11 1.96 1.97 2.13 2.22 2.21 2.02 1.90
1.35 1.49 1.68 1.80 1.58 1.40 1.39 1.41 1.53 1.89 2.18 2.08 1.92 1.88 1.84 1.77 1.79 1.86 1.94 2.02 2.03 1.86 1.73 1.70 1.68 1.65 1.67 1.60 1.63 1.90 2.26 2.25 1.82 1.60 1.66 1.94 1.84 1.89 2.10 2.17 2.11 2.04 2.01
1.55 1.72 1.70 1.57 1.52 1.60 1.68 1.74 1.79 2.07 2.17 2.04 1.95 1.85 1.77 1.71 1.76 1.81 1.75 1.83 1.85 1.77 1.74 1.67 1.66 1.63 1.64 1.59 1.60 1.87 2.15 2.23 1.94 1.84 1.67 1.80 1.65 1.89 2.23 2.19 2.05 2.04 2.10
1.66 1.67 1.60 1.44 1.47 1.51 1.75 2.13 2.19 2.19 2.17 2.10 2.01 1.94 1.81 1.73 1.83 1.85 1.64 1.82 1.87 1.90 1.88 1.91 2.00 1.74 1.69 1.81 1.86 2.16 2.39 2.20 1.87 1.95 2.25 1.93 1.69 2.00 2.44 2.43 2.20 2.13 2.20
1.90 1.76 1.60 1.30 1.42 1.65 1.88 2.03 2.17 2.20 2.32 2.37 2.32 2.19 2.16 2.21 2.17 2.25 1.99 2.32 2.30 2.31 2.27 2.34 2.40 2.24 2.16 2.08 2.21 2.44 2.50 2.19 2.24 2.48 2.46 1.93 1.85 2.32 2.73 2.50 2.37 2.35 2.36
2.25 2.02 1.79 1.54 1.59 1.86 1.86 1.88 2.06 2.09 2.28 2.40 2.50 2.38 2.69 2.95 2.79 2.20 2.51 2.95 3.07 3.03 2.91 2.97 3.09 2.86 2.53 2.29 2.76 3.10 2.60 2.44 2.55 2.50 2.45 2.32 2.44 2.85 3.20 2.84 2.65 2.69 2.67
2.23 2.14 2.08 1.92 1.92 1.86 1.98 1.95 2.14 2.36 2.74 2.62 2.52 2.53 2.96 2.85 2.56 2.37 2.69 3.19 3.57 3.34 3.08 3.20 3.39 2.95 2.94 3.22 3.47 3.54 3.05 2.81 2.83 2.68 2.52 2.62 2.91 3.38 3.84 3.63 3.13 2.94 2.94
2.70 2.60 2.49 2.40 2.33 2.36 2.29 2.16 2.12 2.26 2.49 2.60 2.80 2.56 2.88 3.15 3.05 3.02 3.32 3.35 3.60 3.67 4.00 3.79 3.90 3.70 3.62 3.43 3.49 3.63 3.49 3.58 3.25 3.35 3.44 3.24 3.33 3.72 4.24 4.37 3.90 3.46 3.23
3.10 3.00 2.97 2.90 2.90 2.95 2.90 2.73 2.25 2.43 2.51 2.65 2.97 2.98 3.09 3.45 3.59 3.64 3.64 3.57 3.31 3.58 4.01 4.30 3.88 4.21 4.22 3.79 3.46 3.31 3.35 3.36 3.56 3.85 3.90 4.10 3.98 3.92 4.34 4.67 4.49 4.20 4.00
3.21 3.43 3.65 3.59 3.48 3.53 3.45 3.32 3.12 2.92 3.09 3.08 3.27 3.48 3.65 3.99 4.18 4.12 3.93 3.83 3.45 3.39 3.71 3.93 3.92 4.41 4.24 3.97 3.34 3.21 3.21 3.39 3.59 3.67 3.79 4.34 4.28 3.96 4.05 4.60 5.01 4.99 4.69
3.37 3.92 4.32 4.36 4.26 4.28 4.24 3.95 3.69 3.64 3.63 3.91 4.17 4.21 4.20 4.34 4.66 4.44 4.19 3.78 3.53 3.52 3.79 3.78 3.82 3.95 3.75 3.63 3.37 3.42 3.39 3.46 3.50 3.64 3.81 4.09 3.95 3.65 3.71 4.06 4.76 5.25 5.51
3.65 4.30 4.75 4.92 5.12 5.02 5.05 4.82 4.40 4.27 4.28 4.33 4.48 4.69 4.46 4.43 4.36 4.43 4.07 3.58 3.61 3.56 3.66 3.87 3.74 3.80 3.76 3.74 3.66 3.42 3.45 3.48 3.20 3.28 3.45 3.53 3.73 3.35 3.46 3.71 4.05 4.59 5.48
3.96 4.71 5.29 5.89 6.13 5.99 5.72 5.38 5.03 5.00 4.89 4.71 4.73 4.77 4.59 4.26 4.07 4.33 4.03 3.77 3.65 3.63 3.54 3.33 3.81 3.95 3.95 3.89 3.53 3.45 3.09 2.89 2.73 2.57 2.68 2.69 3.01 3.18 3.39 3.41 3.70 4.05 4.99
4.01 4.86 5.64 6.40 6.64 6.35 5.82 5.54 5.46 5.31 5.03 4.78 4.57 4.52 4.21 4.02 3.69 3.96 3.67 3.58 3.70 3.87 3.73 3.77 4.13 4.12 3.77 3.82 3.35 3.21 3.03 2.62 2.52 2.44 2.32 2.39 2.47 2.51 2.95 3.44 3.98 3.74 4.13
4.26 5.07 5.76 6.35 6.46 6.33 5.99 5.63 5.38 4.93 4.65 4.37 4.09 3.93 3.68 3.42 3.32 3.71 3.44 3.81 3.66 3.63 3.49 3.47 3.67 3.71 3.34 3.52 3.87 3.41 2.84 2.47 2.37 2.20 2.19 2.34 2.25 2.39 2.83 3.40 3.87 3.98 3.70
4.15 4.76 5.14 5.22 5.03 4.97 5.05 4.97 4.70 4.70 4.53 4.48 4.31 4.16 3.63 3.46 3.38 3.17 3.41 3.25 3.24 3.42 3.23 3.19 3.40 3.39 3.04 3.35 3.65 3.74 3.17 2.89 2.41 1.82 2.02 2.20 2.31 2.58 2.59 2.71 3.27 3.75 3.64
3.63 4.00 4.00 3.96 3.92 4.05 4.15 4.11 4.16 4.41 4.50 4.58 4.54 4.31 3.87 3.67 3.55 3.37 3.25 3.08 3.06 2.90 3.10 3.16 3.21 3.34 3.30 3.19 3.25 3.60 3.31 2.94 2.47 1.98 1.90 2.14 2.48 2.78 2.70 2.71 2.73 3.13 3.34
2.89 3.05 3.04 3.15 3.27 3.35 3.45 3.51 3.42 3.45 3.72 4.00 4.25 4.35 4.25 3.98 3.74 3.43 3.21 2.99 2.82 2.67 3.00 2.71 2.84 3.17 3.40 3.08 2.99 2.92 2.91 3.05 2.95 2.55 2.09 1.95 2.20 2.42 2.44 2.34 2.45 2.76 3.03
2.15 2.30 2.37 2.62 3.04 3.23 3.35 3.52 3.47 3.21 3.21 3.30 3.44 3.64 3.66 3.67 3.49 3.15 3.04 2.95 2.75 2.58 2.65 2.68 3.02 3.03 3.01 2.93 2.99 2.93 3.02 3.21 3.00 2.86 2.52 2.38 2.45 2.31 2.15 2.12 2.24 2.45 2.79
1.75 1.91 2.11 2.40 2.94 3.25 3.37 3.32 3.35 3.37 3.43 3.31 3.26 3.35 3.27 3.24 3.14 2.88 2.74 2.87 2.75 2.63 2.69 2.69 2.80 2.88 3.03 3.09 3.07 3.05 3.10 3.09 3.12 3.31 2.95 2.69 2.64 2.31 2.16 2.16 2.28 2.49 2.71